Hourly Data Report for June 02, 2018

LONDON CS
ONTARIO
Current Station Operator: ECCC - MSC

43°02'00.000" N
81°09'00.000" W
278.00 m
6144478
71622
WSN

Download Data

Hourly Data (June 2018)
Hourly Data Report for June 2, 2018
TIME Temp Definition
°C
Dew Point Definition
°C
Rel Hum Definition
%
Wind Dir Definition
10's deg

Wind Spd Definition
km/h
Visibility Definition
km
Stn Press Definition
kPa
Hmdx Definition


Wind Chill Definition


Weather Definition


00:00 16.5 12.8 79 LegendMM LegendMM   98.05     LegendNANA
01:00 15.7 11.6 77 LegendMM LegendMM   98.06     LegendNANA
02:00 14.8 11.2 79 LegendMM LegendMM   98.04     LegendNANA
03:00 14.2 11.0 81 LegendMM LegendMM   98.05     LegendNANA
04:00 13.8 10.8 82 LegendMM LegendMM   98.05     LegendNANA
05:00 13.2 10.6 84 LegendMM LegendMM   98.15     LegendNANA
06:00 13.4 10.1 80 LegendMM LegendMM   98.22     LegendNANA
07:00 13.8 10.6 81 LegendMM LegendMM   98.25     LegendNANA
08:00 14.3 11.3 82 LegendMM LegendMM   98.25     LegendNANA
09:00 14.6 11.9 84 LegendMM LegendMM   98.22     LegendNANA
10:00 15.9 12.3 79 LegendMM LegendMM   98.20     LegendNANA
11:00 18.1 13.8 76 LegendMM LegendMM   98.22     LegendNANA
12:00 19.1 14.3 74 LegendMM LegendMM   98.29     LegendNANA
13:00 19.4 13.5 68 LegendMM LegendMM   98.26     LegendNANA
14:00 19.7 13.4 67 LegendMM LegendMM   98.25     LegendNANA
15:00 19.9 13.7 67 LegendMM LegendMM   98.23     LegendNANA
16:00 20.3 13.9 67 LegendMM LegendMM   98.18     LegendNANA
17:00 20.8 13.8 64 LegendMM LegendMM   98.08     LegendNANA
18:00 20.2 13.7 66 LegendMM LegendMM   98.06     LegendNANA
19:00 19.7 13.5 68 LegendMM LegendMM   98.06     LegendNANA
20:00 17.4 14.3 82 LegendMM LegendMM   98.13     LegendNANA
21:00 16.4 14.1 86 LegendMM LegendMM   98.15     LegendNANA
22:00 15.7 13.5 87 LegendMM LegendMM   98.16     LegendNANA
23:00 15.5 12.7 83 LegendMM LegendMM   98.12     LegendNANA

Notes on Data Quality.

Legend

  • E = Estimated
  • M = Missing
  • NA = Not Available*
  • [empty] = Indicates an unobserved value
Date modified: